DELTA 1 DEB

Satellite information

Favourite Embed

Satellite Type and Status

DEBRISIN ORBIT

Key statistics

Satellite DELTA 1 DEB at a glance.

Uptime

19030

Days in orbit

Revolutions

≈ 13.6

Per day

Orbit

SSO

Sun Synchronous Orbit

Inclination

102.8

Latest

Satellite identification and parameters

Extended collection of information and parameters for DELTA 1 DEB.

Object identification

Identified? True

Debris? True

Object name: DELTA 1 DEB

International designator: 1973-086BM

Object number (NORAD): 7069

Object ID (CCSDS): 7069

Country: UNITED STATES OF AMERICA (US)

Current information (Y/N): Y

RCS size: SMALL

Orbital parameters

Period: 105.839 minutes

Inclination: 102.7745 deg

SMA: 7411.827 km

Apoapsis: 1214.967 km

Periapsis: 852.417 km

RAAN: 326.3787 deg

Eccentricy: 0.02445754

Argument of periapsis: 73.3213 deg

Mean anomaly: 289.4609 deg

Mean motion: 13.6055115 rev/day

Mean motion (dot): 0.00003493 rev/day2

B* drag term: 0.0038760363 1/REarth

Two-line elements (TLE)

Creation date: Dec. 12, 2025, 10:14 a.m.

Reference frame: TEME

Reference center: EARTH

Epoch: Dec. 12, 2025, 5:03 a.m. UTC

TLE line 0: 0 DELTA 1 DEB

TLE line 1: 1 07069U 73086BM 25346.21097451 .00003493 00000-0 38760-2 0 9990

TLE line 2: 2 07069 102.7745 326.3787 0244575 73.3213 289.4609 13.60551150536922

Live tracking on map

Real-time ground track for satellite DELTA 1 DEB.

In-orbit conjunctions

A list of the most updated potential collisions computed for object DELTA 1 DEB.

Target Orbit TCA Probability of collision Miss distance Type
METEOR 1-23 LEO 2025-01-30 22:49:35 0.0005567311 397.0 (m) PAYLOAD
DELTA 1 DEB SSO 2024-10-07 03:25:12 0.0001038645 270.0 (m) DEBRIS

Associated space launch

Meteorological satellite using radiometric imaging

DELTA 1 DEB was lifted into orbit during the mission ‘Delta 0300 | NOAA 3’, on board a Delta 0300 space rocket.

The launch took place on Nov. 6, 1973, 5:02 p.m. from Space Launch Complex 2W.

For more information about the launch, click the button.

Launch to space Delta 0300 | NOAA 3
Delta 0300 | NOAA 3

Agency: N/A

Status: Launch Successful

Launch date: Nov. 6, 1973, 5:02 p.m. UTC

Rocket: Delta 0300

Launch pad: Space Launch Complex 2W

Location: Vandenberg SFB, CA, USA

...

Latest news about this satellite

There are no fresh news available about this satellite. Check back as we update our databases every day.


Newsletter sign-up

Weekly statistics, charts and insights to help you stay on top of the space industry.